Location: Little Maitland River
(43.8022°N, 81.1549°W)
Time: 16:57:29
(UTC+00:00)

IGS 5A - Pass Details

Date: 09 December 2025
Orbit: 551 x 554 km, 97.4° (Epoch: 8 January)

Event Time Altitude Azimuth Distance (km) Brightness Sun altitude
Rises 11:14:02 0° 14° (NNE) 2,747 6.9 -16.1°
Reaches altitude 10° 11:16:11 10° 16° (NNE) 1,847 6.0 -15.8°
Maximum altitude 11:20:11 74° 101° (E) 583 3.5 -15.1°
Drops below altitude 10° 11:24:08 10° 187° (S) 1,829 6.1 -14.4°
Sets 11:26:15 0° 189° (S) 2,717 7.0 -14.0°
